Regional Weather Roundup
Issued by NWS Newport/Morehead, NC

Home | Current Version | Previous Version | Text Only | Print | Product List | Glossary On
Versions: 1 2 3 4 5 6 7 8 9 10 11 12 13 14 15 16 17 18 19 20 21 22 23 24 25 26 27 28 29 30 31 32 33 34 35 36 37 38 39 40 41 42 43 44 45 46 47 48 49 50
000
ASUS42 KMHX 052028
RWRMHX
WEATHER ROUNDUP FOR EASTERN NORTH CAROLINA
NATIONAL WEATHER SERVICE NEWPORT/MOREHEAD CITY NC
300 PM EST THU MAR 05 2015

NOTE: "FAIR" INDICATES FEW OR NO CLOUDS BELOW 12,000 FEET
WITH NO SIGNIFICANT WEATHER AND/OR OBSTRUCTIONS TO VISIBILITY

NCZ015>017-031-032-045>047-102-103-052100-
NORTH COAST

CITY           SKY/WX    TMP DP  RH WIND       PRES   REMARKS
EDENTON        RAIN      37  35  94 N15G22    30.07R
ELIZABETH CITY LGT RAIN  37  36  93 N18G25    30.07R
KITTY HAWK     CLOUDY    37  37 100 N13G22    29.99R FOG
MANTEO         CLOUDY    38  37  96 N21G26    29.99F

$$

NCZ045>047-081-094-103-104-052100-
CENTRAL COAST

CITY           SKY/WX    TMP DP  RH WIND       PRES   REMARKS
FRISCO         CLOUDY    41  41 100 N10G21    29.96F FOG
SWANQUARTER      N/A     41 N/A N/A NE10G29   29.94R

$$

NCZ095-097-098-100-101-052100-
SOUTHERN COAST

CITY           SKY/WX    TMP DP  RH WIND       PRES   REMARKS
BEAUFORT       CLOUDY    61  60  97 S20       29.90F FOG
CEDAR ISLAND     N/A     43 N/A N/A N12G26    30.00S
JACKSONVILLE   CLOUDY    80  61  52 SW12G23   29.85F
PINEY ISLAND     N/A    N/A N/A N/A MISG      29.95S
WILMINGTON     MOSUNNY   75  63  66 SW22G36   29.88F


$$

NCZ011>013-027>030-043-044-078>080-089-090>093-098-052100-
COASTAL PLAIN

CITY           SKY/WX    TMP DP  RH WIND       PRES   REMARKS
AHOSKIE        LGT RAIN  35  34  94 N17       30.09S
CLINTON        CLOUDY    49  45  86 NE18G28   29.92R
ELIZABETHTOWN  CLOUDY    79  61  52 SW10G16   29.85S
GOLDSBORO      MIX PCPN  39  39 100 N22G30    30.00R FOG
GREENVILLE     LGT RAIN  37  37 100 N21       30.05R
HAVELOCK       MOSUNNY   55  45  68 NE22G29   29.92R
KENANSVILLE    CLOUDY    45  40  82 N28G37    29.97R
KINSTON        LGT RAIN  41  41 100 N21G29    30.01R
NEW BERN       CLOUDY    51  42  71 NE14      29.95R
RICHLANDS      CLOUDY    75  57  53 N13G31    29.91R
ROCKY MOUNT    LGT SNOW  37  35  92 N23G32    30.07R FOG
WASHINGTON     LGT SNOW  38  36  91 N14G23    30.04R
WHITEVILLE     PTSUNNY   81  61  49 SW16G23   29.85F

$$

AMZ130-135-150-152-154-156-158-170-250-252-270-ANZ085-086-088-633-658-670-052100-
MARINE OBSERVATIONS

STATION/POSITION TIME  TEMP    WIND        PRES    WAVE   SWELL
                       AIR SEA DIR/SP/G            HT/PER HT/PER
                 (UTC) (F)     (DEG/KT/KT) (MB)    (FT/S) (FT/S)
CHESAPEAKE LIGHT 2000   33      20/ 28/ 29 1018.4
64 E VA BEACH    1950   45 52   20/ 25/ 31 1013.7    9/ 7
DUCK             2000   35 36   10/ 26/ 30 1015.4
2 E DUCK         1911      36                N/A     6/ 6
10 NE DUCK       1922      38                N/A     7/ 6
OREGON INLET     2000   37 49  360/ 15/ 19 1014.9
HATTERAS CG      2000      51   20/ 22/ 24 1014.6
CAPE LOOKOUT     2000   61     210/ 14/ 21 1013.0
BEAUFORT LAB     2000   58 49  200/ 15/ 21 1011.6
27 SE WRIGHTSVLE NOT AVBL
5 SE WRIGHTSVLE  NOT AVBL
225 S CAPE HAT   1950   74 73  220/ 19/ 23 1018.2    7/ 7   3/10
41 SE CHARLESTON 1950   70 68  220/ 21/ 27 1014.1    7/ 7   2/ 9

$$


USA.gov is the U.S. government's official web portal to all federal, state and local government web resources and services.